Location: Byhalia Creek
(34.8270°N, 89.8040°W)
Time: 08:52:12
(UTC+00:00)

NOSS 3-1 (C) - Pass Details

Date: 22 April 2026
Orbit: 618 x 1583 km, 63.4° (Epoch: 10 January)

Event Time Altitude Azimuth Distance (km) Brightness Sun altitude
Rises 03:19:02 0° 332° (NNW) 3,892 7.7 -29.8°
Reaches altitude 10° 03:21:32 10° 336° (NNW) 3,061 6.9 -30.2°
Maximum altitude 03:29:02 63° 57° (ENE) 1,483 4.2 -31.2°
Enters shadow 03:29:48 61° 82° (E) 1,528 4.2 -31.3°
